Zurück zum Katalog

STARLINK-1132

AktivKommunikationVLEO
NORAD 45044·PAYLOAD·🇺🇸 United States

Gestartet Jan 29, 2020 von Cape Canaveral Space Force Station

Loading…

Nächste Überflüge (nächste 24 Stunden)

TLE

AktuellSource: CelesTrak SupGP

Epoche: Sep 14, 2026, 21:36 UTC

1 45044C 20006A   26257.90048611  .00112500  00000+0  80688-3 0  2574
2 45044  53.1460  57.6407 0000772 266.6387 249.8259 15.72939669    18

Verfolge STARLINK-1132 in Echtzeit mit AllMySat

Download on the App Store